Weather History for Evergreen, AL

Change the Weather History Date:

Saturday, May 4, 2013

  Actual Average (KPRN) Record (KPRN)
Temperature  
Mean Temperature 56 °F -  
Max Temperature 66 °F 79 °F 94 °F (1955)
Min Temperature 46 °F 55 °F 38 °F (1971)
Degree Days  
Heating Degree Days 9    
Growing Degree Days 6 (Base 50)    
Moisture  
Dew Point 42 °F    
Average Humidity 74    
Maximum Humidity 93    
Minimum Humidity 36    
Precipitation  
Precipitation 1.30 in - - ()
Sea Level Pressure  
Sea Level Pressure 29.93 in    
Wind  
Wind Speed 9 mph (NNW)    
Max Wind Speed 15 mph    
Max Gust Speed 24 mph    
Visibility 8 miles    
Events Rain    
Averages and records for this station are not official NWS values.
T = Trace of Precipitation, MM = Missing Value Source: NWS Daily Summary

Daily Weather History Graph

Daily Weather History Graph

Search for Another Location

Airport:

Trip Planner

Search our weather history database for the weather conditions in past years. The results will help you decide how hot, cold, wet, or windy it might be!

Date:

Astronomy

May. 04, 2013 Rise Set
Actual Time 6:00 AM CDT 7:30 PM CDT
Civil Twilight 5:34 AM CDT 7:56 PM CDT
Nautical Twilight 5:03 AM CDT 8:27 PM CDT
Astronomical Twilight 4:30 AM CDT 8:59 PM CDT
Moon 2:38 AM CDT (5/4) 2:45 PM CDT (5/4)
Length of Visible Light 14h 21m
Length of Day
13h 29m
Waning Crescent, 27% of the Moon is Illuminated
May 4
Waning Crescent
May 9
New
May 17
First Quarter
May 24
Full
May 31
Last Quarter

Hourly Weather History & Observations

Time (CDT) Temp. Windchill Dew Point Humidity Pressure Visibility Wind Dir Wind Speed Gust Speed Precip Events Conditions
12:02 AM 50.0 °F - 46.4 °F 87% 29.95 in 5.0 mi NNW 11.5 mph 18.4 mph 0.02 in Rain Light Rain
12:26 AM 48.2 °F - 44.6 °F 87% 29.95 in 4.0 mi NNW 15.0 mph 24.2 mph 0.08 in Rain Rain
12:53 AM 48.0 °F - 45.0 °F 89% 29.94 in 5.0 mi NNW 12.7 mph 16.1 mph 0.14 in Rain Light Rain
1:12 AM 48.2 °F - 44.6 °F 87% 29.94 in 5.0 mi NW 6.9 mph - 0.04 in Rain Light Rain
1:46 AM 46.4 °F 43.5 °F 44.6 °F 93% 29.95 in 5.0 mi Variable 5.8 mph 18.4 mph 0.11 in Rain Light Rain
1:53 AM 46.9 °F - 44.1 °F 90% 29.95 in 4.0 mi NNW 9.2 mph - 0.12 in Rain Light Rain
2:09 AM 46.4 °F 42.9 °F 44.6 °F 93% 29.95 in 4.0 mi North 6.9 mph - 0.04 in Rain Light Rain
2:19 AM 46.4 °F 42.4 °F 44.6 °F 93% 29.94 in 9.0 mi NNW 8.1 mph - 0.06 in Rain Light Rain
2:42 AM 46.4 °F 42.9 °F 42.8 °F 87% 29.94 in 7.0 mi NW 6.9 mph 18.4 mph 0.10 in Rain Light Rain
2:53 AM 46.0 °F 40.6 °F 43.0 °F 89% 29.92 in 7.0 mi NNW 11.5 mph 17.3 mph 0.12 in Rain Light Rain
3:45 AM 46.4 °F 42.9 °F 42.8 °F 87% 29.91 in 6.0 mi NNW 6.9 mph - 0.10 in Rain Light Rain
3:53 AM 46.0 °F 41.9 °F 43.0 °F 89% 29.91 in 6.0 mi NNW 8.1 mph - 0.11 in Rain Light Rain
4:05 AM 46.4 °F 41.5 °F 42.8 °F 87% 29.92 in 7.0 mi NNW 10.4 mph - 0.02 in Rain Light Rain
4:53 AM 46.0 °F 40.6 °F 43.0 °F 89% 29.91 in 10.0 mi NNW 11.5 mph 17.3 mph 0.10 in Rain Light Rain
5:53 AM 46.0 °F 40.6 °F 43.0 °F 89% 29.92 in 7.0 mi NNW 11.5 mph 17.3 mph 0.10 in Rain Light Rain
6:21 AM 46.4 °F 42.9 °F 42.8 °F 87% 29.93 in 6.0 mi NNW 6.9 mph 16.1 mph 0.04 in Rain Light Rain
6:36 AM 46.4 °F 42.4 °F 42.8 °F 87% 29.94 in 10.0 mi NNW 8.1 mph 16.1 mph 0.06 in   Overcast
6:53 AM 46.0 °F 41.9 °F 42.1 °F 86% 29.94 in 10.0 mi North 8.1 mph - 0.08 in Rain Light Rain
7:53 AM 48.0 °F - 42.1 °F 80% 29.94 in 10.0 mi NNW 8.1 mph - 0.09 in   Overcast
8:53 AM 52.0 °F - 43.0 °F 71% 29.95 in 10.0 mi North 6.9 mph - 0.07 in   Clear
9:53 AM 55.0 °F - 39.9 °F 57% 29.97 in 10.0 mi NNW 11.5 mph 17.3 mph 0.08 in   Clear
10:53 AM 59.0 °F - 39.9 °F 49% 29.97 in 10.0 mi NNW 12.7 mph 24.2 mph 0.08 in   Clear
11:53 AM 60.1 °F - 37.0 °F 42% 29.96 in 10.0 mi NNW 13.8 mph 21.9 mph 0.06 in   Clear
12:53 PM 63.0 °F - 39.0 °F 41% 29.94 in 10.0 mi NNW 13.8 mph 20.7 mph 0.06 in   Clear
1:53 PM 64.9 °F - 37.9 °F 37% 29.93 in 10.0 mi NNW 12.7 mph 21.9 mph 0.05 in   Clear
2:53 PM 66.0 °F - 39.0 °F 37% 29.92 in 10.0 mi North 10.4 mph 21.9 mph 0.03 in   Clear
3:53 PM 66.0 °F - 37.9 °F 36% 29.91 in 10.0 mi NNW 10.4 mph 18.4 mph 0.01 in   Clear
4:53 PM 66.0 °F - 37.9 °F 36% 29.90 in 10.0 mi NNW 12.7 mph 19.6 mph N/A   Clear
5:53 PM 64.9 °F - 37.9 °F 37% 29.90 in 10.0 mi Variable 4.6 mph 18.4 mph N/A   Clear
6:53 PM 61.0 °F - 39.9 °F 46% 29.90 in 10.0 mi North 4.6 mph - N/A   Clear
7:53 PM 54.0 °F - 45.0 °F 72% 29.91 in 10.0 mi Calm Calm - N/A   Clear
8:53 PM 51.1 °F - 46.9 °F 86% 29.94 in 10.0 mi Calm Calm - N/A   Clear
9:53 PM 50.0 °F - 46.0 °F 86% 29.94 in 10.0 mi Calm Calm - N/A   Clear
10:53 PM 48.0 °F - 45.0 °F 89% 29.93 in 9.0 mi Calm Calm - N/A   Clear
11:53 PM 46.9 °F - 44.1 °F 90% 29.93 in 10.0 mi Calm Calm - N/A   Clear